Weather History for Barksdale AFB, LA

Change the Weather History Date:

Monday, August 5, 2013

  Actual Average Record
Temperature  
Mean Temperature 88 °F -  
Max Temperature 99 °F 90 °F 104 °F (2011)
Min Temperature 78 °F 71 °F 70 °F (2014)
Cooling Degree Days 23    
Growing Degree Days 38 (Base 50)    
Moisture  
Dew Point 71 °F    
Average Humidity 62    
Maximum Humidity 84    
Minimum Humidity 35    
Precipitation  
Precipitation 0.05 in - - ()
Sea Level Pressure  
Sea Level Pressure 29.98 in    
Wind  
Wind Speed 8 mph (South)    
Max Wind Speed 36 mph    
Max Gust Speed 20 mph    
Visibility 10 miles    
Events      
Averages and records for this station are not official NWS values.
T = Trace of Precipitation, MM = Missing Value Source: NWS Daily Summary

Daily Weather History Graph

Daily Weather History Graph

Search for Another Location

Airport:

Trip Planner

Search our weather history database for the weather conditions in past years. The results will help you decide how hot, cold, wet, or windy it might be!

Date:

Astronomy

Aug. 05, 2013 Rise Set
Actual Time 6:31 AM CDT 8:08 PM CDT
Civil Twilight 6:05 AM CDT 8:35 PM CDT
Nautical Twilight 5:33 AM CDT 9:07 PM CDT
Astronomical Twilight 4:59 AM CDT 9:40 PM CDT
Moon 5:26 AM CDT (8/5) 7:11 PM CDT (8/5)
Length of Visible Light 14h 29m
Length of Day
13h 36m
Waning Crescent, 1% of the Moon is Illuminated
Aug 5
Waning Crescent
Aug 6
New
Aug 14
First Quarter
Aug 20
Full
Aug 28
Last Quarter

Hourly Weather History & Observations

Time (CDT) Temp. Heat Index Dew Point Humidity Pressure Visibility Wind Dir Wind Speed Gust Speed Precip Events Conditions
12:58 AM 80.2 °F 84.3 °F 72.3 °F 77% 30.01 in 10.0 mi SE 5.8 mph - N/A   Scattered Clouds
1:58 AM 79.5 °F - 72.7 °F 79% 30.01 in 10.0 mi SE 5.8 mph - N/A   Clear
2:58 AM 79.2 °F - 73.2 °F 82% 30.01 in 10.0 mi South 4.6 mph - N/A   Mostly Cloudy
3:58 AM 78.6 °F - 73.4 °F 84% 30.01 in 10.0 mi SSE 4.6 mph - N/A   Scattered Clouds
4:58 AM 81.0 °F 86.2 °F 73.8 °F 79% 30.01 in 10.0 mi SSW 4.6 mph - N/A   Partly Cloudy
5:58 AM 81.0 °F 86.0 °F 73.6 °F 78% 30.01 in 10.0 mi SSW 4.6 mph - N/A   Clear
6:45 AM 80.6 °F 85.4 °F 73.4 °F 79% 30.01 in 10.0 mi ESE 5.8 mph - N/A   Clear
6:46 AM 80.6 °F 85.4 °F 73.4 °F 79% 30.01 in 10.0 mi ESE 5.8 mph - N/A   Clear
6:47 AM 80.6 °F 85.4 °F 73.4 °F 79% 30.02 in 10.0 mi ENE 35.7 mph - N/A   Squalls
6:58 AM 80.4 °F 85.1 °F 73.6 °F 80% 30.02 in 10.0 mi ESE 6.9 mph - N/A   Clear
7:58 AM 82.0 °F 87.9 °F 73.8 °F 76% 30.04 in 10.0 mi SW 5.8 mph - N/A   Clear
8:58 AM 85.3 °F 91.8 °F 72.7 °F 66% 30.04 in 10.0 mi WSW 9.2 mph - N/A   Clear
9:58 AM 88.2 °F 94.6 °F 71.8 °F 58% 30.04 in 10.0 mi WSW 9.2 mph - N/A   Clear
10:58 AM 90.1 °F 96.8 °F 71.4 °F 54% 30.03 in 10.0 mi SSW 6.9 mph 19.6 mph N/A   Clear
11:58 AM 92.7 °F 99.4 °F 71.2 °F 49% 30.01 in 10.0 mi South 5.8 mph - N/A   Clear
12:58 PM 94.8 °F 100.9 °F 69.8 °F 44% 29.99 in 10.0 mi South 10.4 mph - N/A   Clear
1:58 PM 96.6 °F 102.1 °F 68.9 °F 40% 29.98 in 10.0 mi SSW 10.4 mph - N/A   Clear
2:58 PM 98.1 °F 102.4 °F 66.6 °F 36% 29.96 in 10.0 mi SSW 9.2 mph - N/A   Clear
3:58 PM 98.1 °F 102.4 °F 66.9 °F 36% 29.93 in 10.0 mi South 6.9 mph - N/A   Clear
4:58 PM 98.8 °F 103.2 °F 66.9 °F 35% 29.91 in 10.0 mi South 8.1 mph - N/A   Clear
5:58 PM 97.9 °F 102.7 °F 67.3 °F 37% 29.89 in 10.0 mi SSE 10.4 mph - N/A   Clear
6:58 PM 96.1 °F 101.0 °F 68.0 °F 40% 29.88 in 10.0 mi SSE 10.4 mph - N/A   Clear
7:58 PM 91.0 °F 96.1 °F 69.3 °F 49% 29.89 in 10.0 mi SE 9.2 mph - N/A   Clear
8:58 PM 87.6 °F 92.7 °F 70.0 °F 56% 29.91 in 10.0 mi SE 8.1 mph - N/A   Clear
9:58 PM 84.4 °F 89.0 °F 70.7 °F 63% 29.93 in 10.0 mi SE 6.9 mph - N/A   Clear
10:58 PM 82.9 °F 87.7 °F 71.4 °F 68% 29.94 in 10.0 mi SSE 6.9 mph - N/A   Clear
11:58 PM 84.4 °F 89.4 °F 71.1 °F 64% 29.93 in 10.0 mi South 8.1 mph - N/A   Clear